Flag for Belgium Weather past 2 weeks in Bruges, Belgium

57 °F

Scattered clouds.

Feels Like: 55 °F
Forecast: 53 / 65 °F
Wind: 8 mph from Southwest

Location: Oostende Airport

Current Time: Oct 4, 2015 at 1:17:16 PM

Latest Report: Oct 4, 2015 at 12:20 PM

Visibility: 4 mi

Pressure: 30.01 "Hg

Humidity: 88%

Dew point: 54 °F

Location of BrugesLocation

Historic Weather in Bruges — Graph


Bruges temperature yesterday

Maximum temperature yesterday: 61 °F (at 2:50 PM)
Minimum temperature yesterday: 41 °F (at 6:50 AM)
Average temperature yesterday: 51 °F

Past Weeks' High & Low Weather Summary

High64 °F (Sep 20, 12:50 PM)100% (Sep 26, 12:50 AM)30.66 "Hg (Sep 26, 12:50 AM)
Low41 °F (Oct 3, 6:50 AM)45% (Sep 30, 3:50 PM)29.47 "Hg (Sep 22, 2:20 PM)
Average54 °F79%30.21 "Hg
* Reported Sep 19 11:20 AM — Oct 4 11:50 AM, Bruges, Weather by CustomWeather, © 2015

Note: Actual official high and low records may vary slightly from our data, if they occured in-between our weather recording intervals... More about our weather records


Bruges weather history for previous 24 hours

Time TempWeatherWind HumidityBarometerVisibility
11:50 AM
Sun, Oct 4
55 °FFog.7 mph94%30.01 "Hg3 mi
11:20 AM54 °FFog.7 mph94%30.01 "Hg2 mi
10:50 AM52 °FFog.8 mph94%30.01 "Hg2 mi
10:20 AM50 °FFog.8 mph100%30.01 "Hg1 mi
9:50 AM48 °FFog.6 mph100%30.01 "Hg1 mi
9:20 AM46 °FFog.3 mph100%30.01 "Hg1 mi
8:50 AM45 °FFog.2 mph100%30.01 "Hg0 mi
8:20 AM43 °FFog.3 mph100%30.01 "Hg0 mi
7:50 AM43 °FFog.5 mph100%29.98 "Hg0 mi
7:20 AM41 °FFog.2 mph100%29.98 "Hg0 mi
6:50 AM43 °FFog.2 mph100%29.98 "Hg0 mi
6:20 AM43 °FFog.1 mph100%29.98 "Hg0 mi
5:50 AM45 °FFog.1 mph100%29.98 "Hg0 mi
5:20 AM45 °FFog.2 mph100%29.98 "Hg0 mi
4:50 AM45 °FFog.3 mph100%29.98 "Hg0 mi
4:20 AM46 °FFog.2 mph100%29.98 "Hg0 mi
3:50 AM46 °FFog.3 mph100%29.98 "Hg0 mi
3:20 AM46 °FFog.3 mph100%29.98 "Hg0 mi
2:50 AM46 °FFog.3 mph100%29.98 "Hg0 mi
2:20 AM46 °FFog.2 mph100%29.98 "Hg0 mi
1:50 AM45 °FFog.3 mph100%29.95 "Hg0 mi
1:20 AM45 °FFog.3 mph100%29.95 "Hg0 mi
12:50 AM45 °FFog.2 mph100%29.95 "Hg0 mi
12:20 AM45 °FFog.2 mph100%29.95 "Hg0 mi
11:50 PM
Sat, Oct 3
45 °FFog.2 mph100%29.95 "Hg0 mi
11:20 PM45 °FFog.2 mph100%29.95 "Hg0 mi
10:50 PM46 °FFog.2 mph100%29.95 "Hg0 mi
10:20 PM46 °FFog.2 mph100%29.95 "Hg0 mi
9:50 PM48 °FFog.3 mph100%29.95 "Hg1 mi
9:20 PM50 °FFog.2 mph100%29.95 "Hg1 mi
8:50 PM52 °FFog.2 mph100%29.95 "Hg1 mi
8:20 PM54 °FClear.3 mph100%29.95 "Hg4 mi
7:50 PM54 °FClear.3 mph100%29.95 "Hg4 mi
7:20 PM57 °FClear.5 mph88%29.95 "Hg4 mi
6:50 PM57 °FClear.3 mph88%29.95 "Hg5 mi
6:20 PM59 °FClear.6 mph82%29.92 "Hg5 mi
5:50 PM59 °FClear.6 mph82%29.95 "Hg6 mi
5:20 PM61 °FClear.7 mph77%29.95 "Hg6 mi
4:50 PM61 °FClear.7 mph72%29.95 "Hg6 mi
4:20 PM59 °FClear.7 mph77%29.92 "Hg6 mi
3:50 PM61 °FSunny.7 mph63%29.92 "Hg10 mi
3:20 PM61 °FPassing clouds.5 mph72%29.92 "HgN/A
2:50 PM61 °FPassing clouds.6 mph72%29.95 "HgN/A
2:20 PM59 °FPassing clouds.5 mph77%29.95 "HgN/A
1:50 PM59 °FSunny.7 mph77%29.95 "Hg10 mi
1:20 PM59 °FPassing clouds.5 mph72%29.95 "HgN/A
Weather by CustomWeather, © 2015

See weather overviewHow to use our weather pages